Weather History for Springfield, MO

Change the Weather History Date:

Saturday, September 8, 2012

  Actual Average Record
Temperature  
Mean Temperature 63 °F 72 °F  
Max Temperature 72 °F 84 °F 98 °F (1960)
Min Temperature 54 °F 61 °F 45 °F (1956)
Degree Days  
Heating Degree Days 2 0  
Month to date heating degree days 2 0  
Since 1 July heating degree days 2 2  
Cooling Degree Days 0 8  
Month to date cooling degree days 101 71  
Year to date cooling degree days 1691 1257  
Growing Degree Days 13 (Base 50)    
Moisture  
Dew Point 50 °F    
Average Humidity 67    
Maximum Humidity 93    
Minimum Humidity 40    
Precipitation  
Precipitation 0.00 in 0.15 in 2.14 in (1992)
Month to date precipitation 1.50 1.21  
Year to date precipitation 20.91 31.32  
Snow  
Snow 0.00 in - - ()
Month to date snowfall 0.0  
Since 1 July snowfall 0.0  
Since 1 September snowfall 0.0  
Snow Depth 0.00 in    
Sea Level Pressure  
Sea Level Pressure 30.06 in    
Wind  
Wind Speed 9 mph (NNW)    
Max Wind Speed 21 mph    
Max Gust Speed 25 mph    
Visibility 10 miles    
Events      
T = Trace of Precipitation, MM = Missing Value Source: NWS Daily Summary

Daily Weather History Graph

Daily Weather History Graph

Search for Another Location

Airport:

Trip Planner

Search our weather history database for the weather conditions in past years. The results will help you decide how hot, cold, wet, or windy it might be!

Date:

Astronomy

Sep. 08, 2012 Rise Set
Actual Time 6:50 AM CDT 7:31 PM CDT
Civil Twilight 6:23 AM CDT 7:57 PM CDT
Nautical Twilight 5:52 AM CDT 8:28 PM CDT
Astronomical Twilight 5:20 AM CDT 9:00 PM CDT
Moon No Moon Rise 2:22 PM CDT (9/8)
Length of Visible Light 13h 33m
Length of Day
12h 40m
Waning Gibbous, 48% of the Moon is Illuminated
Sep 8
Waning Gibbous
Sep 15
New
Sep 22
First Quarter
Sep 29
Full
Oct 8
Last Quarter

Hourly Weather History & Observations

Time (CDT) Temp. Dew Point Humidity Pressure Visibility Wind Dir Wind Speed Gust Speed Precip Events Conditions
12:21 AM 62.6 °F 57.2 °F 82% 30.03 in 10.0 mi North 16.1 mph - N/A   Overcast
12:52 AM 61.0 °F 55.9 °F 83% 30.00 in 10.0 mi North 13.8 mph - N/A   Scattered Clouds
1:52 AM 59.0 °F 55.0 °F 87% 30.01 in 10.0 mi North 13.8 mph - N/A   Clear
2:52 AM 57.9 °F 55.0 °F 90% 30.02 in 10.0 mi North 11.5 mph - N/A   Clear
3:52 AM 57.0 °F 55.0 °F 93% 30.03 in 10.0 mi NNW 9.2 mph - N/A   Clear
4:52 AM 57.2 °F 55.4 °F 94% 30.06 in 10.0 mi NNW 9.2 mph - N/A   Clear
5:52 AM 55.9 °F 54.0 °F 93% 30.04 in 10.0 mi NNW 9.2 mph - N/A   Clear
6:52 AM 54.0 °F 52.0 °F 93% 30.06 in 10.0 mi NW 6.9 mph - N/A   Clear
7:52 AM 55.9 °F 53.1 °F 90% 30.07 in 10.0 mi NW 9.2 mph - N/A   Clear
8:52 AM 59.0 °F 52.0 °F 78% 30.09 in 10.0 mi NNW 12.7 mph - N/A   Clear
9:52 AM 62.1 °F 51.1 °F 67% 30.11 in 10.0 mi NNW 10.4 mph - N/A   Clear
10:52 AM 64.9 °F 46.9 °F 52% 30.12 in 10.0 mi NNW 18.4 mph 21.9 mph N/A   Partly Cloudy
11:52 AM 68.0 °F 45.0 °F 43% 30.12 in 10.0 mi North 16.1 mph - N/A   Clear
12:52 PM 69.1 °F 46.9 °F 45% 30.11 in 10.0 mi NNW 17.3 mph 21.9 mph N/A   Clear
1:52 PM 70.0 °F 45.0 °F 41% 30.09 in 10.0 mi NW 15.0 mph 23.0 mph N/A   Clear
2:52 PM 71.1 °F 46.0 °F 41% 30.07 in 10.0 mi NW 10.4 mph 19.6 mph N/A   Clear
3:52 PM 72.0 °F 46.9 °F 41% 30.05 in 10.0 mi WNW 9.2 mph 20.7 mph N/A   Clear
4:52 PM 72.0 °F 46.0 °F 40% 30.04 in 10.0 mi NW 12.7 mph - N/A   Clear
5:52 PM 71.1 °F 46.9 °F 42% 30.04 in 10.0 mi NW 10.4 mph - N/A   Clear
6:52 PM 68.0 °F 46.9 °F 47% 30.04 in 10.0 mi NNW 10.4 mph - N/A   Clear
7:52 PM 66.0 °F 46.9 °F 50% 30.04 in 10.0 mi Calm Calm - N/A   Clear
8:52 PM 60.1 °F 48.9 °F 67% 30.05 in 10.0 mi WNW 3.5 mph - N/A   Clear
9:52 PM 59.0 °F 48.9 °F 69% 30.07 in 10.0 mi Calm Calm - N/A   Clear
10:52 PM 57.0 °F 48.9 °F 74% 30.07 in 10.0 mi WSW 3.5 mph - N/A   Clear
11:52 PM 57.0 °F 48.0 °F 72% 30.06 in 10.0 mi SW 4.6 mph - N/A   Clear